Ceiba, PR

7:23 AM AST on February 21, 2017 (GMT -0400)
Roosevelt Roads Ns

Weather History for TJNR - November, 2012

Change the Weather History Date:

Friday, November 9, 2012

  Actual Average Record
Temperature  
Mean Temperature 81 °F -  
Max Temperature 89 °F 83 °F 89 °F (2012)
Min Temperature 73 °F 71 °F 72 °F (2006)
Cooling Degree Days 16    
Growing Degree Days 31 (Base 50)    
Moisture  
Dew Point 74 °F    
Average Humidity 79    
Maximum Humidity 94    
Minimum Humidity 65    
Precipitation  
Precipitation 0.00 in - - ()
Sea Level Pressure  
Sea Level Pressure 29.91 in    
Wind  
Wind Speed 4 mph (NE)    
Max Wind Speed 10 mph    
Max Gust Speed -    
Visibility 10 miles    
Events      
Averages and records for this station are not official NWS values.
T = Trace of Precipitation, MM = Missing Value Source: NWS Daily Summary

Daily Weather History Graph

Daily Weather History Graph

Search for Another Location

Airport or City:

Trip Planner

Search our weather history database for the weather conditions in past years. The results will help you decide how hot, cold, wet, or windy it might be!

Date:

Astronomy

Nov. 09, 2012 Rise Set
Actual Time 6:25 AM AST 5:46 PM AST
Civil Twilight 6:03 AM AST 6:09 PM AST
Nautical Twilight 5:36 AM AST 6:35 PM AST
Astronomical Twilight 5:10 AM AST 7:01 PM AST
Moon 1:59 AM AST (11/9) 2:23 PM AST (11/9)
Length of Visible Light 12h 06m
Length of Day
11h 20m
Waning Crescent, 23% of the Moon is Illuminated
Nov 9
Waning Crescent
Nov 13
New
Nov 20
First Quarter
Nov 28
Full
Dec 6
Last Quarter

Hourly Weather History & Observations

Time (AST) Temp. Heat Index Dew Point Humidity Pressure Visibility Wind Dir Wind Speed Gust Speed Precip Events Conditions
12:12 AM 78.8 °F - 73.4 °F 83% 29.92 in 10.0 mi Calm Calm - N/A   Mostly Cloudy
12:53 AM 77.0 °F - 73.0 °F 88% 29.91 in 10.0 mi Calm Calm - N/A   Partly Cloudy
1:53 AM 75.0 °F - 73.0 °F 94% 29.89 in 10.0 mi WNW 3.5 mph - N/A   Clear
2:53 AM 75.9 °F - 73.0 °F 91% 29.87 in 10.0 mi Calm Calm - N/A   Mostly Cloudy
3:26 AM 77.0 °F - 71.6 °F 83% 29.87 in 9.0 mi ENE 9.2 mph - N/A   Overcast
3:53 AM 75.9 °F - 72.0 °F 87% 29.88 in 9.0 mi NNE 4.6 mph - 0.00 in   Overcast
4:53 AM 75.9 °F - 72.0 °F 87% 29.88 in 10.0 mi Calm Calm - N/A   Overcast
5:53 AM 73.9 °F - 72.0 °F 93% 29.89 in 10.0 mi Calm Calm - N/A   Clear
6:53 AM 75.0 °F - 73.0 °F 94% 29.91 in 10.0 mi North - - N/A   Scattered Clouds
7:53 AM 82.9 °F 90.2 °F 75.0 °F 77% 29.92 in 10.0 mi East 4.6 mph - N/A   Partly Cloudy
8:53 AM 84.9 °F 93.3 °F 75.0 °F 72% 29.94 in 10.0 mi ENE 6.9 mph - N/A   Partly Cloudy
9:53 AM 86.0 °F 95.1 °F 75.0 °F 70% 29.96 in 10.0 mi East 6.9 mph - N/A   Clear
10:53 AM 86.0 °F 95.1 °F 75.0 °F 70% 29.95 in 10.0 mi East 5.8 mph - N/A   Partly Cloudy
11:53 AM 89.1 °F 100.2 °F 75.9 °F 65% 29.94 in 10.0 mi NNE 6.9 mph - N/A   Scattered Clouds
12:53 PM 86.0 °F 95.1 °F 75.0 °F 70% 29.92 in 10.0 mi NE 5.8 mph - N/A   Overcast
1:53 PM 87.1 °F 97.3 °F 75.9 °F 69% 29.89 in 10.0 mi ENE 10.4 mph - N/A   Clear
2:53 PM 87.1 °F 96.3 °F 75.0 °F 67% 29.88 in 10.0 mi ENE 8.1 mph - N/A   Clear
3:53 PM 82.9 °F 90.2 °F 75.0 °F 77% 29.87 in 10.0 mi NE 9.2 mph - N/A   Partly Cloudy
4:53 PM 82.9 °F 90.2 °F 75.0 °F 77% 29.87 in 10.0 mi NE 6.9 mph - N/A   Clear
5:53 PM 82.0 °F 87.4 °F 73.0 °F 74% 29.88 in 10.0 mi NE 8.1 mph - N/A   Scattered Clouds
6:53 PM 81.0 °F 85.8 °F 73.0 °F 77% 29.89 in 10.0 mi ENE 5.8 mph - N/A   Partly Cloudy
7:53 PM 82.0 °F 87.4 °F 73.0 °F 74% 29.92 in 10.0 mi NE 6.9 mph - N/A   Partly Cloudy
8:53 PM 81.0 °F 85.8 °F 73.0 °F 77% 29.92 in 10.0 mi ENE 6.9 mph - N/A   Partly Cloudy
9:53 PM 81.0 °F 86.2 °F 73.9 °F 79% 29.93 in 10.0 mi NE 6.9 mph - N/A   Partly Cloudy
10:53 PM 81.0 °F 86.2 °F 73.9 °F 79% 29.92 in 10.0 mi ENE 6.9 mph - N/A   Scattered Clouds
11:35 PM 82.4 °F 88.2 °F 73.4 °F 74% 29.91 in 10.0 mi ENE 10.4 mph - N/A   Mostly Cloudy
11:42 PM 80.6 °F 85.4 °F 73.4 °F 79% 29.91 in 10.0 mi ENE 6.9 mph - N/A   Scattered Clouds
11:53 PM 81.0 °F 85.8 °F 73.0 °F 77% 29.91 in 10.0 mi ENE 9.2 mph - N/A   Partly Cloudy